Location: Kernascl�den
(48.0062°N, 3.3198°W)
Time: 21:48:54
(UTC+00:00)

Cosmos 1939 Rocket - Pass Details

Date: 21 January 2021
Orbit: 531 x 585 km, 97.4° (Epoch: 03 March)

Event Time Altitude Azimuth Distance (km) Brightness Sun altitude
Rises 17:38:05 0° 150° (SSE) 2,794 6.3 -7.1°
Reaches altitude 10° 17:40:17 10° 145° (SE) 1,895 5.4 -7.4°
Maximum altitude 17:44:14 47° 72° (ENE) 775 3.2 -8.1°
Drops below altitude 10° 17:48:09 10° 358° (N) 1,888 5.4 -8.7°
Sets 17:50:21 0° 353° (N) 2,782 6.3 -9.0°
